CW6037 Weather Reports


time (UTC)temp
C
wind
direction
speed
KPH
gust
KPH
rain 1hr
cm
rain 24hr
cm
rain mn
cm
humidity
%
barometer
mb
20260507010910 9 282 3.2 6.4 0.00 0.81 0.81 88 1011.3
20260507010402 9 279 1.6 6.4 0.00 0.81 0.81 88 1011.3
20260507005643 9 288 1.6 4.8 0.00 0.81 0.81 89 1011.2
20260507005144 9 288 1.6 11.3 0.00 0.81 0.81 88 1011.0
20260507004642 9 288 1.6 11.3 0.00 0.81 0.81 88 1010.9
20260507004142 9 248 0.0 3.2 0.00 0.81 0.81 89 1010.7
20260507003636 9 248 0.0 3.2 0.00 0.81 0.81 89 1010.7
20260507003130 9 248 0.0 3.2 0.00 0.81 0.81 89 1010.4
20260507002630 9 232 1.6 3.2 0.00 0.81 0.81 90 1010.3
20260507002128 9 232 3.2 14.5 0.00 0.81 0.81 89 1010.3
20260507001628 9 230 1.6 14.5 0.00 0.81 0.81 89 1010.4
20260507001131 9 263 1.6 4.8 0.00 0.81 0.81 90 1010.4
20260507000627 9 263 1.6 4.8 0.00 0.81 0.81 90 1010.2
20260507000125 9 263 1.6 3.2 0.00 0.81 0.81 89 1010.2
20260506235841 9 263 1.6 6.4 0.00 0.81 0.81 90 1010.0
20260506235123 9 263 1.6 6.4 0.00 0.81 0.81 89 1009.9
20260506234839 9 244 1.6 4.8 0.00 0.81 0.81 90 1009.8
20260506234118 9 104 1.6 4.8 0.00 0.81 0.81 90 1009.8
20260506233618 9 104 1.6 6.4 0.00 0.81 0.81 90 1010.0
20260506233118 9 98 3.2 11.3 0.00 0.81 0.81 89 1010.0
20260506232619 10 257 3.2 11.3 0.00 0.81 0.81 89 1009.9
20260506232120 10 42 1.6 8.0 0.00 0.81 0.81 90 1010.0
20260506231620 10 244 1.6 6.4 0.00 0.81 0.81 89 1009.9
20260506231119 10 283 1.6 8.0 0.00 0.81 0.81 90 1009.7
20260506230615 10 350 1.6 8.0 0.00 0.81 0.81 89 1009.6
20260506230114 10 137 1.6 11.3 0.00 0.81 0.81 89 1009.5
20260506225614 10 137 1.6 11.3 0.00 0.81 0.81 88 1009.3
20260506225114 10 181 1.6 6.4 0.00 0.81 0.81 89 1009.2
20260506224614 10 232 1.6 6.4 0.00 0.81 0.81 88 1009.3
20260506224117 10 190 1.6 8.0 0.00 0.81 0.81 88 1009.0
20260506223614 10 182 1.6 8.0 0.00 0.81 0.81 88 1008.8
20260506223112 10 136 3.2 9.7 0.00 0.81 0.81 88 1008.6
20260506222612 10 189 3.2 11.3 0.00 0.81 0.81 89 1008.5
20260506222112 10 92 4.8 11.3 0.03 0.81 0.81 89 1008.2
20260506221610 10 311 4.8 11.3 0.03 0.81 0.81 90 1008.2
20260506221110 10 238 6.4 17.7 0.03 0.81 0.81 91 1008.0
20260506220611 11 306 6.4 17.7 0.03 0.81 0.81 91 1007.8
20260506220337 11 340 6.4 19.3 0.03 0.81 0.81 91 1007.5
20260506215608 11 253 8.0 25.7 0.03 0.81 0.81 90 1007.5
20260506215108 11 293 9.7 25.7 0.03 0.81 0.81 90 1007.4
20260506214611 11 325 9.7 20.9 0.03 0.81 0.81 90 1007.3
20260506214108 12 236 8.0 24.1 0.03 0.81 0.81 90 1007.2
20260506213608 12 355 8.0 24.1 0.03 0.81 0.81 91 1007.1
20260506213108 12 291 8.0 24.1 0.03 0.81 0.81 91 1006.9
20260506212609 13 275 8.0 24.1 0.03 0.81 0.81 91 1006.9
20260506212108 13 286 9.7 24.1 0.00 0.79 0.79 91 1006.7
20260506211608 13 300 6.4 24.1 0.00 0.79 0.79 91 1006.8
20260506211108 13 294 4.8 20.9 0.00 0.79 0.79 91 1006.3
20260506210608 13 294 6.4 20.9 0.00 0.79 0.79 90 1006.3
20260506210111 13 251 6.4 20.9 0.00 0.79 0.79 89 1006.2
20260506205608 14 275 8.0 30.6 0.00 0.79 0.79 89 1006.3
20260506205108 15 278 8.0 30.6 0.00 0.79 0.79 88 1006.0
20260506204608 15 281 6.4 27.4 0.00 0.79 0.79 91 1005.8
20260506204108 16 265 3.2 9.7 0.00 0.79 0.79 93 1005.6
20260506203609 16 270 3.2 12.9 0.00 0.79 0.79 93 1005.5
20260506203110 16 265 3.2 17.7 0.00 0.79 0.79 94 1005.4
20260506202608 16 240 3.2 17.7 0.00 0.79 0.79 94 1005.5
20260506202108 16 259 4.8 12.9 0.00 0.79 0.79 94 1005.6
20260506201609 15 208 4.8 16.1 0.00 0.79 0.79 94 1005.6
20260506201108 15 250 4.8 16.1 0.00 0.79 0.79 94 1005.7
20260506200608 15 254 4.8 16.1 0.00 0.79 0.79 94 1005.6
20260506200110 15 254 6.4 14.5 0.00 0.79 0.79 94 1005.7
20260506195608 15 239 4.8 14.5 0.00 0.79 0.79 94 1005.8
20260506195105 15 271 4.8 12.9 0.00 0.79 0.79 94 1005.7
20260506194606 15 241 4.8 11.3 0.00 0.79 0.79 94 1005.8
20260506194108 15 200 3.2 11.3 0.00 0.79 0.79 94 1005.8
20260506193605 15 220 3.2 16.1 0.00 0.79 0.79 94 1005.8
20260506193102 15 229 4.8 19.3 0.00 0.79 0.79 94 1005.8
20260506192601 15 292 4.8 19.3 0.00 0.79 0.79 94 1005.9
20260506192102 15 251 4.8 14.5 0.00 0.79 0.79 94 1005.9
20260506191603 15 252 4.8 14.5 0.00 0.79 0.79 94 1005.8
20260506191105 15 197 4.8 11.3 0.00 0.79 0.79 94 1005.7
20260506190602 15 238 4.8 16.1 0.00 0.79 0.79 94 1006.0
20260506185601 15 246 3.2 9.7 0.00 0.79 0.79 94 1006.1
20260506185320 15 263 3.2 17.7 0.00 0.79 0.79 94 1006.1
20260506184603 15 258 4.8 17.7 0.00 0.79 0.79 94 1006.0
20260506184555 15 248 4.8 14.5 0.03 0.79 0.79 94 1006.2
20260506183822 15 279 4.8 17.7 0.03 0.79 0.79 94 1006.2
20260506183057 15 268 4.8 17.7 0.03 0.79 0.79 94 1006.2
20260506182556 15 186 4.8 19.3 0.03 0.79 0.79 94 1006.2
20260506182056 15 158 4.8 19.3 0.05 0.79 0.79 95 1006.2
20260506181555 15 240 3.2 14.5 0.05 0.79 0.79 95 1006.3
20260506181055 15 248 3.2 11.3 0.05 0.79 0.79 95 1006.4
20260506180558 15 224 4.8 11.3 0.08 0.79 0.79 95 1006.4
20260506180056 15 250 4.8 11.3 0.10 0.79 0.79 95 1006.4
20260506175556 15 270 4.8 11.3 0.10 0.79 0.79 95 1006.6
20260506175315 15 309 3.2 12.9 0.13 0.79 0.79 94 1006.6
20260506174558 15 271 3.2 12.9 0.15 0.79 0.79 95 1006.4
20260506174056 15 234 4.8 12.9 0.13 0.76 0.76 95 1006.6
20260506173556 15 229 4.8 14.5 0.13 0.76 0.76 95 1006.6
20260506173058 15 68 4.8 14.5 0.15 0.76 0.76 95 1006.4
20260506172558 15 302 3.2 14.5 0.15 0.76 0.76 95 1006.4
20260506172056 15 256 3.2 14.5 0.13 0.74 0.76 95 1006.7
20260506171820 15 264 3.2 6.4 0.13 0.74 0.74 95 1006.8
20260506171058 15 234 1.6 6.4 0.13 0.74 0.74 95 1006.7
20260506170548 15 275 1.6 6.4 0.10 0.71 0.71 94 1006.7
20260506170048 15 268 1.6 6.4 0.10 0.69 0.69 95 1006.7
20260506170036 15 275 1.6 6.4 0.10 0.69 0.69 95 1006.8
20260506165047 15 263 1.6 4.8 0.13 0.66 0.66 95 1006.7
20260506164548 15 261 1.6 11.3 0.13 0.64 0.64 94 1006.7
20260506164050 15 261 3.2 11.3 0.15 0.64 0.64 94 1006.8
20260506163547 15 260 3.2 9.7 0.20 0.64 0.64 94 1006.7
20260506163053 15 259 3.2 9.7 0.18 0.61 0.64 94 1006.7
20260506162553 15 215 3.2 12.9 0.20 0.61 0.61 94 1006.7
20260506162052 15 166 3.2 12.9 0.20 0.61 0.61 94 1006.7
20260506162044 15 269 1.6 6.4 0.23 0.61 0.61 94 1006.6
20260506161051 15 295 1.6 8.0 0.23 0.61 0.61 94 1006.8
20260506160551 15 265 1.6 8.0 0.23 0.61 0.61 94 1006.8
20260506160312 15 244 1.6 6.4 0.20 0.58 0.58 94 1006.9
20260506155545 15 213 3.2 11.3 0.23 0.58 0.58 94 1006.9
20260506155046 15 280 1.6 11.3 0.18 0.53 0.56 93 1007.1
20260506154556 15 277 3.2 12.9 0.15 0.51 0.51 93 1007.1
20260506154045 15 219 3.2 12.9 0.15 0.48 0.48 93 1007.1
20260506153547 15 252 1.6 8.0 0.10 0.43 0.46 93 1007.1
20260506153043 15 225 1.6 8.0 0.10 0.43 0.43 93 1007.2
20260506152543 15 271 3.2 11.3 0.08 0.41 0.41 93 1007.1
20260506152043 15 171 3.2 11.3 0.10 0.41 0.41 93 1007.1
20260506151543 15 149 1.6 8.0 0.08 0.38 0.38 93 1007.0
20260506151045 15 196 0.0 8.0 0.10 0.38 0.38 93 1006.9
20260506150539 15 194 1.6 8.0 0.13 0.38 0.38 93 1007.0
20260506150039 15 236 1.6 6.4 0.15 0.38 0.38 93 1006.8
20260506145540 15 233 1.6 8.0 0.13 0.36 0.36 93 1006.9
20260506145037 15 148 3.2 8.0 0.15 0.36 0.36 93 1006.9
20260506144539 15 284 1.6 6.4 0.18 0.36 0.36 93 1007.0
20260506144038 15 244 1.6 4.8 0.15 0.33 0.33 93 1007.0
20260506143801 15 225 0.0 3.2 0.18 0.33 0.33 94 1007.0
20260506143039 15 225 0.0 1.6 0.18 0.33 0.33 94 1007.0
20260506142535 15 225 0.0 0.0 0.20 0.33 0.33 94 1007.0
20260506142257 15 225 0.0 1.6 0.20 0.30 0.30 94 1007.0
20260506141534 15 225 0.0 3.2 0.20 0.30 0.30 93 1007.1
20260506141029 15 225 1.6 3.2 0.20 0.28 0.28 93 1007.2
20260506140529 15 225 1.6 4.8 0.20 0.25 0.25 93 1007.4
20260506140029 15 225 1.6 4.8 0.18 0.23 0.25 92 1007.4
20260506135527 15 203 3.2 6.4 0.20 0.23 0.23 92 1007.5
20260506135253 15 191 1.6 6.4 0.18 0.20 0.20 92 1007.5
20260506134742 15 200 1.6 9.7 0.15 0.18 0.18 92 1007.8
20260506134023 15 227 1.6 9.7 0.18 0.18 0.18 91 1007.7
20260506133522 15 242 0.0 4.8 0.15 0.15 0.15 91 1007.7
20260506133024 15 196 1.6 4.8 0.15 0.15 0.15 91 1007.8
20260506133006 15 144 1.6 6.4 0.13 0.13 0.13 90 1008.0
20260506132019 15 129 3.2 6.4 0.10 0.10 0.10 89 1008.0
20260506131740 15 236 3.2 9.7 0.10 0.10 0.10 89 1008.1
20260506131017 15 224 3.2 9.7 0.08 0.08 0.08 88 1008.2
20260506130519 15 186 3.2 8.0 0.05 0.05 0.05 88 1008.2
20260506130015 15 225 3.2 9.7 0.05 0.05 0.05 87 1008.1
20260506125515 15 285 1.6 9.7 0.03 0.03 0.03 87 1008.1
20260506125015 15 240 1.6 9.7 0.03 0.03 0.03 87 1007.9
20260506124515 15 258 1.6 9.7 0.03 0.03 0.03 87 1007.8
20260506124015 15 250 1.6 4.8 0.00 0.00 0.00 87 1007.5
20260506123515 15 169 1.6 4.8 0.00 0.00 0.00 88 1007.3
20260506122957 13 260 1.6 6.4 0.00 0.00 0.00 89 1007.2
20260506122011 13 51 1.6 4.8 0.00 0.00 0.00 89 1007.4
20260506121828 13 277 0.0 3.2 0.00 0.00 0.00 89 1007.4
20260506121752 13 277 0.0 0.0 0.00 0.00 0.00 89 1007.5
20260506120507 12 277 0.0 0.0 0.00 0.00 0.00 90 1007.5
20260506120233 12 277 0.0 0.0 0.00 0.00 0.00 90 1007.6
20260506115506 12 277 0.0 0.0 0.00 0.00 0.00 90 1007.6
20260506115008 12 277 0.0 0.0 0.00 0.00 0.00 90 1007.4
20260506114505 12 277 0.0 0.0 0.00 0.00 0.00 90 1007.5
20260506114457 12 277 0.0 0.0 0.00 0.00 0.00 90 1007.6
20260506113505 12 277 0.0 0.0 0.00 0.00 0.00 90 1007.5
20260506113008 12 277 0.0 0.0 0.00 0.00 0.00 90 1007.5
20260506112951 12 277 0.0 0.0 0.00 0.00 0.00 90 1007.5
20260506112004 12 277 0.0 0.0 0.00 0.00 0.00 90 1007.5
20260506111458 12 277 0.0 0.0 0.00 0.00 0.00 90 1007.5
20260506111001 12 277 0.0 0.0 0.00 0.00 0.00 90 1007.5
20260506110501 12 277 0.0 0.0 0.00 0.00 0.00 90 1007.4
20260506110227 12 277 0.0 0.0 0.00 0.00 0.00 90 1007.4
20260506105501 12 277 0.0 0.0 0.00 0.00 0.00 90 1007.3
20260506104958 12 277 0.0 0.0 0.00 0.00 0.00 90 1007.2
20260506104455 12 277 0.0 0.0 0.00 0.00 0.00 90 1007.2
20260506103955 12 277 0.0 0.0 0.00 0.00 0.00 90 1006.8
20260506103456 12 277 0.0 0.0 0.00 0.00 0.00 90 1006.8
20260506103441 12 277 0.0 0.0 0.00 0.00 0.00 90 1006.9
20260506102452 12 277 0.0 0.0 0.00 0.00 0.00 90 1006.9
20260506101953 12 277 0.0 0.0 0.00 0.00 0.00 90 1007.0
20260506101455 12 277 0.0 0.0 0.00 0.00 0.00 90 1006.9
20260506100952 11 277 0.0 0.0 0.00 0.00 0.00 90 1006.8
20260506100453 11 277 0.0 0.0 0.00 0.00 0.00 90 1006.8
20260506095952 11 277 0.0 0.0 0.00 0.00 0.00 90 1007.0
20260506095453 11 277 0.0 0.0 0.00 0.00 0.00 90 1007.1
20260506095221 11 277 0.0 0.0 0.00 0.00 0.00 90 1007.1
20260506094720 11 277 0.0 0.0 0.00 0.00 0.00 90 1007.1
20260506094209 11 277 0.0 1.6 0.00 0.00 0.00 90 1007.0
20260506093451 11 277 0.0 1.6 0.00 0.00 0.00 90 1007.0
20260506092951 11 277 0.0 0.0 0.00 0.00 0.00 90 1007.0
20260506092449 11 277 0.0 1.6 0.00 0.00 0.00 89 1006.9
20260506091950 11 277 0.0 1.6 0.00 0.00 0.00 90 1006.9
20260506091448 11 277 0.0 1.6 0.00 0.00 0.00 90 1007.0
20260506090948 11 277 0.0 1.6 0.00 0.00 0.00 90 1007.1
20260506090448 11 277 0.0 1.6 0.00 0.00 0.00 90 1007.2
20260506085949 11 277 0.0 1.6 0.00 0.00 0.00 90 1007.1
20260506085450 11 277 0.0 1.6 0.00 0.00 0.00 90 1007.3
20260506085207 11 277 0.0 0.0 0.00 0.00 0.00 89 1007.2
20260506084448 11 277 0.0 0.0 0.00 0.00 0.00 90 1007.3
20260506083948 11 277 0.0 0.0 0.00 0.00 0.00 90 1007.5
20260506083715 11 277 0.0 1.6 0.00 0.00 0.00 89 1007.4
20260506082950 11 277 0.0 3.2 0.00 0.00 0.00 89 1007.4
20260506082925 11 277 1.6 3.2 0.00 0.00 0.00 89 1007.4
20260506081945 11 277 0.0 3.2 0.00 0.00 0.00 90 1007.3
20260506081442 11 277 0.0 0.0 0.00 0.00 0.00 90 1007.2
20260506080941 11 277 0.0 1.6 0.00 0.00 0.00 90 1007.1
20260506080440 11 277 0.0 1.6 0.00 0.00 0.00 90 1007.2
20260506073430 11 277 0.0 0.0 0.00 0.00 0.00 90 1007.3
20260506072929 11 277 0.0 0.0 0.00 0.00 0.00 90 1007.4
20260506072647 11 277 0.0 0.0 0.00 0.00 0.00 90 1007.5
20260506071922 11 277 0.0 0.0 0.00 0.00 0.00 90 1007.5
20260506071420 11 277 0.0 1.6 0.00 0.00 0.00 90 1007.6
20260506071145 11 277 0.0 1.6 0.00 0.00 0.00 90 1007.5
20260506070641 11 277 0.0 1.6 0.00 0.00 0.00 90 1007.4
20260506061904 11 277 0.0 3.2 0.00 0.00 0.00 89 1007.7
20260506061415 11 277 0.0 1.6 0.00 0.00 0.00 89 1007.9
20260506061404 11 277 0.0 3.2 0.00 0.00 0.00 89 1007.8
20260506060403 11 277 0.0 1.6 0.00 0.00 0.00 89 1007.8
20260506051354 11 277 0.0 1.6 0.00 0.00 0.00 87 1008.2
20260506050855 11 277 0.0 1.6 0.00 0.00 0.00 87 1008.2
20260506050352 12 277 0.0 0.0 0.00 0.00 0.00 86 1008.2
20260506044846 12 277 0.0 0.0 0.00 0.00 0.00 86 1008.2
20260506044340 12 277 0.0 1.6 0.00 0.00 0.00 85 1008.2
20260506043842 12 277 0.0 1.6 0.00 0.00 0.00 85 1008.2
20260506043340 12 277 0.0 1.6 0.00 0.00 0.00 85 1008.3
20260506042838 12 277 0.0 1.6 0.00 0.00 0.00 84 1008.3
20260506042338 12 277 0.0 1.6 0.00 0.00 0.00 84 1008.4
20260506041834 13 277 0.0 1.6 0.00 0.00 0.00 84 1008.5
20260506041552 13 277 0.0 0.0 0.00 0.00 0.00 84 1008.5
20260506040831 13 277 0.0 0.0 0.00 0.00 0.00 82 1008.3
20260506040822 13 277 0.0 1.6 0.00 0.00 0.00 82 1008.5
20260506035829 13 277 0.0 1.6 0.00 0.00 0.00 82 1008.5
20260506035542 13 277 0.0 0.0 0.00 0.00 0.00 81 1008.5
20260506034825 13 277 0.0 0.0 0.00 0.00 0.00 81 1008.5
20260506034326 13 277 0.0 1.6 0.00 0.00 0.00 81 1008.5
20260506033823 14 277 0.0 1.6 0.00 0.00 0.00 82 1008.5
20260506033320 14 277 0.0 0.0 0.00 0.00 0.00 80 1008.4
20260506032819 14 277 0.0 0.0 0.00 0.00 0.00 80 1008.4
20260506032319 15 277 0.0 0.0 0.00 0.00 0.00 80 1008.4
20260506031817 15 277 0.0 1.6 0.00 0.00 0.00 80 1008.4
20260506031315 15 277 0.0 1.6 0.00 0.00 0.00 79 1008.3
20260506030813 15 277 0.0 0.0 0.00 0.00 0.00 78 1008.4
20260506030311 15 277 0.0 0.0 0.00 0.00 0.00 77 1008.3
20260506025809 15 277 0.0 0.0 0.00 0.00 0.00 76 1008.3
20260506025309 16 277 0.0 3.2 0.00 0.00 0.00 76 1008.3
20260506024808 16 277 0.0 3.2 0.00 0.00 0.00 74 1008.3
20260506024309 16 277 0.0 1.6 0.00 0.00 0.00 75 1008.2
20260506023808 16 277 0.0 1.6 0.00 0.00 0.00 74 1008.3
20260506023308 16 277 0.0 1.6 0.00 0.00 0.00 73 1008.3
20260506023032 16 277 0.0 1.6 0.00 0.00 0.00 73 1008.3
20260506022308 17 277 0.0 1.6 0.00 0.00 0.00 74 1008.4
20260506021809 17 277 0.0 3.2 0.00 0.00 0.00 74 1008.4
20260506021303 17 277 1.6 3.2 0.00 0.00 0.00 74 1008.4
20260506020803 17 277 1.6 3.2 0.00 0.00 0.00 73 1008.4
20260506020303 17 277 0.0 1.6 0.00 0.00 0.00 71 1008.4
20260506015803 17 277 0.0 1.6 0.00 0.00 0.00 70 1008.2
20260506015305 18 277 0.0 1.6 0.00 0.00 0.00 72 1008.3
20260506014804 18 277 0.0 1.6 0.00 0.00 0.00 72 1008.3
20260506014303 18 277 0.0 3.2 0.00 0.00 0.00 71 1008.3
20260506014025 18 277 1.6 3.2 0.00 0.00 0.00 66 1008.2
20260506013302 18 277 1.6 3.2 0.00 0.00 0.00 65 1008.2
20260506013252 18 277 0.0 3.2 0.00 0.00 0.00 66 1008.0
20260506012903 18 277 1.6 3.2 0.00 0.00 0.00 66 1008.1
20260506012025 18 277 0.0 1.6 0.00 0.00 0.00 68 1007.9
20260506011302 19 277 0.0 1.6 0.00 0.00 0.00 67 1007.9